SCP
0 0 0 0 0 0 0 0 0 0 0 0 0 0 0 0 0 1 1 1 1 1 1 1 1 1 1 1 1 1 1 0 0 1 1 1 1 1 1 0 1 1 1
0 0 0 0 0 0 0 0 0 0 0 0 0 0 0 0 0 0 0 1 1 1 1 1 0 0 1 1 1 1 1 0 0 0 1 1 1 1 1 1 1 1 1
0 0 0 0 0 0 0 0 0 0 0 0 0 0 0 0 0 0 0 0 0 0 0 0 0 0 0 0 1 1 1 0 0 0 0 0 1 1 1 1 1 1 1
0 0 0 0 0 0 0 0 0 0 0 0 0 0 0 0 0 0 0 0 0 0 0 1 1 0 0 0 1 1 1 1 1 0 0 0 0 1 1 1 1 1 1
0 0 0 0 0 0 0 0 0 0 0 0 0 0 0 0 0 0 0 0 0 0 0 1 1 1 1 0 0 0 0 0 0 0 0 0 0 0 1 1 1 1 1
0 0 0 0 0 0 0 0 0 0 0 0 0 0 0 0 0 0 0 0 0 0 0 0 0 1 1 0 0 0 0 0 0 0 0 0 0 0 0 1 1 1 1
1 1 0 0 0 0 0 0 0 0 0 0 0 0 0 0 0 0 0 0 0 0 0 0 0 0 0 0 0 0 0 0 0 0 0 0 0 0 0 1 1 1 1
1 1 1 0 0 1 1 0 0 1 1 0 0 0 0 0 0 0 0 0 0 0 0 0 0 0 0 0 0 1 1 0 0 0 0 0 0 0 0 0 1 1 1
1 1 1 0 0 1 1 1 1 1 1 1 1 0 0 0 0 0 1 1 1 0 0 0 0 0 0 0 0 0 0 0 0 0 1 0 0 0 0 1 1 1 1
1 1 1 0 0 1 1 1 1 1 1 1 1 1 1 0 0 0 1 1 1 1 0 0 0 0 0 0 0 0 0 0 0 0 0 0 0 0 1 1 1 1 1
1 1 1 1 0 1 1 1 1 1 1 1 1 1 1 1 1 0 1 1 1 1 0 0 0 0 0 0 0 0 0 0 0 0 0 0 0 1 1 1 1 1 1
2 1 1 1 1 1 1 1 1 1 2 2 2 1 1 1 1 1 0 1 1 1 1 0 0 0 0 0 0 0 0 0 0 0 0 0 0 0 1 1 1 1 1
2 1 1 1 1 1 1 1 1 1 2 2 2 2 1 1 1 1 1 1 1 1 1 0 0 0 0 0 0 0 0 0 0 0 0 0 0 0 0 1 1 1 1
2 2 1 1 1 1 1 1 1 1 2 2 2 2 2 2 2 2 1 1 1 1 0 0 0 0 0 0 0 0 0 0 0 0 0 0 0 1 1 1 1 1 1
3 2 1 1 1 1 1 2 2 2 1 2 2 2 2 2 3 2 2 2 1 1 0 0 0 0 0 0 0 0 0 0 0 0 0 0 0 0 0 1 1 1 1
3 2 2 1 1 1 1 2 2 2 2 2 2 3 3 3 3 3 3 2 2 1 1 0 0 0 0 0 0 0 0 0 0 0 0 0 0 0 0 0 0 1 1
2 2 2 2 2 1 1 1 2 2 2 3 3 3 3 3 3 3 3 3 2 2 1 1 0 0 0 0 0 0 0 0 0 0 0 0 0 0 0 0 0 0 1
2 2 2 2 2 1 1 1 1 1 2 3 3 3 3 4 4 4 4 4 3 3 2 1 1 0 0 0 0 0 0 0 0 0 0 0 0 0 0 0 0 0 0
3 3 2 2 1 1 1 1 1 1 1 1 2 2 3 3 4 5 5 5 5 3 2 2 1 1 0 0 0 0 0 0 0 0 0 0 0 0 0 0 0 0 0
3 3 3 2 1 1 1 1 1 1 1 1 1 1 2 2 3 4 4 5 5 4 3 2 1 1 1 0 0 0 0 0 0 0 0 0 0 0 0 0 0 0 0
2 3 3 2 2 1 1 1 1 1 1 1 1 1 1 1 1 1 2 3 4 4 3 2 1 1 1 0 0 0 0 1 1 1 0 0 0 0 0 0 0 0 0
2 2 2 2 2 1 1 1 1 1 1 1 1 1 1 0 0 0 1 1 2 2 2 2 2 1 1 1 0 0 0 1 1 1 1 0 0 0 0 0 0 0 0
1 2 2 2 1 1 1 1 1 1 1 1 1 1 1 1 0 0 0 0 0 1 1 2 2 1 1 1 0 0 0 1 1 0 0 0 0 0 0 0 0 0 0
1 2 2 2 1 1 1 1 1 1 1 1 1 1 1 1 1 0 0 0 0 0 1 1 1 1 1 1 0 0 0 1 0 0 0 0 0 0 0 0 0 0 0
2 2 2 2 1 1 1 1 1 1 1 1 1 1 1 1 1 1 1 1 0 0 0 0 0 0 0 0 0 0 0 1 0 0 0 0 0 0 0 0 0 0 0
2 2 2 2 1 1 1 1 1 1 1 1 1 1 1 1 1 1 1 1 1 0 0 0 0 0 0 0 0 0 0 1 0 0 0 0 1 1 1 1 0 0 0
Wind_Speed
2 1 1 1 2 1 2 2 3 4 4 4 4 4 4 4 4 4 3 8 9 10 9 9 9 9 8 8 7 6 6 7 7 7 7 7 7 7 7 6 6 6 6
2 2 2 2 2 2 2 2 3 3 2 3 4 4 4 4 3 4 4 5 8 9 9 9 9 8 8 8 7 7 7 7 6 6 6 7 7 7 7 6 6 5 6
3 2 2 2 2 2 2 2 3 2 2 3 3 3 3 3 3 3 3 3 4 6 8 8 8 8 7 7 7 7 6 6 6 5 6 6 6 6 6 6 5 5 6
3 3 2 2 2 2 2 2 2 2 2 2 2 2 2 2 2 2 3 3 3 3 4 7 7 7 7 7 7 7 7 7 6 5 5 6 6 6 5 5 5 5 5
3 3 2 2 2 2 2 2 2 2 2 2 1 1 1 1 2 2 3 4 3 3 2 4 6 6 6 6 6 6 6 6 6 6 5 5 5 5 5 5 5 5 5
3 3 2 2 2 2 2 2 2 2 1 1 2 1 1 1 2 2 2 2 2 3 3 3 2 3 5 5 5 5 5 5 5 5 5 5 5 5 5 5 5 5 5
2 2 2 2 2 2 1 2 1 2 1 1 1 1 1 1 1 1 1 1 2 2 2 2 2 1 2 4 4 4 4 3 4 4 5 5 4 5 5 5 5 5 5
2 2 2 1 1 1 1 1 2 1 1 1 1 1 1 2 2 0 1 1 1 1 1 2 2 2 2 2 2 4 4 3 4 4 4 4 4 4 4 5 5 5 5
1 1 1 1 1 1 0 1 1 0 1 1 1 1 1 1 1 1 0 1 1 1 1 1 2 2 2 2 2 3 5 4 3 3 4 3 3 3 3 4 4 5 5
1 1 1 1 1 1 0 0 1 0 0 1 2 1 0 1 1 1 1 1 1 1 1 1 2 2 3 2 3 5 5 4 3 3 3 3 3 3 3 4 4 4 5
1 1 1 0 0 0 0 0 0 0 1 1 1 1 1 1 1 1 1 1 1 1 0 1 1 1 2 2 2 4 5 4 4 3 3 2 2 2 3 3 4 4 4
1 1 1 0 0 0 1 1 1 1 1 1 1 0 0 0 1 1 1 1 1 1 1 0 1 1 2 1 3 5 5 4 4 3 3 3 3 2 3 3 3 3 4
1 1 1 1 1 1 1 1 1 1 1 1 1 1 1 1 1 0 1 1 1 1 0 0 1 1 1 2 2 5 4 3 3 3 3 3 3 3 3 2 3 3 4
2 2 2 2 2 2 1 1 1 1 1 2 2 2 1 1 0 0 1 1 0 0 0 1 1 1 1 2 3 4 2 3 3 3 3 3 3 3 3 2 2 3 3
0 1 1 2 2 2 2 2 1 2 2 2 2 2 1 1 0 0 0 1 1 1 1 1 0 1 1 2 4 2 2 2 3 3 2 2 2 2 2 2 2 2 2
1 1 1 2 1 1 1 1 1 2 2 2 2 2 1 1 0 0 0 0 1 2 1 1 0 1 1 2 3 2 2 4 3 2 2 2 2 2 2 2 2 2 2
1 2 1 1 1 2 2 2 2 2 3 2 2 2 2 2 1 1 1 0 0 1 1 1 1 0 1 1 1 1 2 2 2 3 3 3 2 2 2 2 2 1 1
2 2 1 1 1 2 2 2 3 3 3 3 2 2 2 2 2 2 1 1 1 1 2 1 1 0 0 1 2 1 1 2 2 3 4 3 3 3 3 3 2 2 1
1 1 1 1 1 1 1 1 2 3 3 2 2 3 2 2 2 2 2 2 1 1 1 1 1 1 0 0 1 1 0 0 1 2 4 3 3 4 4 3 2 2 2
1 1 1 1 2 2 1 2 2 2 2 2 2 2 2 2 3 3 3 3 2 2 1 1 1 1 1 1 1 1 0 0 0 1 2 2 3 4 4 4 3 3 3
1 1 1 1 2 2 1 1 2 2 2 3 3 3 2 3 3 3 2 2 2 2 2 2 1 1 1 1 2 2 2 1 1 1 1 1 2 2 3 4 4 4 4
1 1 1 1 2 2 3 3 2 2 3 3 3 4 3 4 4 3 3 3 3 3 3 3 2 2 3 3 2 2 2 1 1 1 1 1 2 2 2 2 3 4 4
1 2 2 2 2 3 4 4 4 3 3 3 3 3 3 3 3 3 3 4 4 5 5 4 3 3 3 3 3 2 2 2 2 2 1 1 1 2 2 2 5 5 5
2 2 2 2 2 3 5 5 5 3 3 4 4 4 4 3 3 4 4 4 4 4 5 4 4 4 4 3 4 4 4 2 1 1 2 1 1 2 2 1 4 5 5
2 2 2 3 3 3 5 5 4 3 3 4 4 3 3 3 3 4 4 4 4 4 4 5 5 5 4 4 3 2 2 2 2 1 1 2 1 1 1 1 2 4 4
2 2 2 2 2 3 4 5 4 2 3 3 3 3 3 3 2 2 3 3 3 3 2 3 4 4 3 3 5 4 4 4 2 2 2 2 1 1 1 1 1 2 2
Wind_Direction
85 72 60 52 46 31 17 19 27 26 25 27 39 54 58 56 77 88 83 82 81 77 73 67 63 61 60 61 65 68 73 76 75 77 76 74 71 73 75 75 74 73 74
92 85 63 51 43 41 28 26 32 35 23 34 40 43 53 52 61 89 106 89 83 79 74 70 64 61 63 64 65 63 69 72 72 75 77 76 74 72 72 70 69 71 73
76 71 61 51 35 36 39 33 27 31 28 35 40 46 59 55 51 72 97 102 91 79 75 71 65 62 66 66 67 65 68 74 77 78 81 81 79 75 73 69 67 69 73
76 73 66 56 38 38 39 37 27 31 26 25 22 41 57 58 46 59 79 96 92 89 79 74 71 67 67 67 68 68 65 69 78 79 80 81 78 74 73 70 71 70 70
68 70 64 48 44 48 40 28 31 33 27 12 358 72 58 72 65 56 64 82 86 88 94 84 78 72 67 64 65 67 69 67 75 82 83 83 80 76 75 74 74 73 74
54 64 69 57 45 49 35 38 36 22 18 342 338 53 81 109 92 67 62 72 80 89 96 98 93 79 72 64 61 62 67 72 72 84 87 84 80 80 77 78 76 76 77
60 69 55 54 47 58 49 41 45 21 347 345 17 1 349 69 90 103 89 89 92 96 110 102 99 103 85 70 58 53 55 81 85 89 92 88 83 82 78 80 78 77 75
45 58 68 64 45 52 64 52 49 15 326 359 33 13 357 348 338 74 91 84 85 71 76 84 83 93 98 88 66 54 49 82 94 96 100 96 91 87 83 80 76 78 78
77 53 45 61 70 63 109 119 83 96 302 307 1 100 117 231 310 330 4 72 76 57 36 49 66 87 92 84 78 58 57 60 87 103 107 104 101 94 91 87 78 74 78
81 81 53 32 47 59 49 219 133 178 144 301 324 339 293 145 153 272 320 1 68 60 39 33 49 63 74 87 82 76 68 53 66 92 109 112 105 100 96 92 87 79 79
98 81 59 31 35 14 249 247 115 202 210 209 252 291 315 319 267 167 230 306 348 335 31 77 70 69 76 80 91 87 80 68 58 69 87 105 107 108 101 96 97 89 87
170 164 170 193 171 227 251 211 187 218 233 232 248 247 192 265 276 243 213 229 237 282 332 56 94 97 92 81 98 100 88 76 68 64 67 76 87 100 100 95 91 91 98
195 202 204 219 217 213 223 224 207 228 221 222 233 238 226 235 242 249 177 243 228 268 347 332 191 149 123 99 105 113 96 84 76 71 68 72 73 73 86 94 98 95 96
208 190 204 219 217 208 207 197 241 243 236 227 235 233 238 252 305 250 168 143 286 291 315 252 244 156 128 126 137 139 116 101 91 92 88 84 79 71 72 73 93 88 93
230 198 206 223 227 217 205 190 217 243 240 232 234 234 218 215 239 322 30 149 164 202 257 251 306 122 120 123 142 144 136 126 116 111 108 107 102 93 87 79 79 80 92
314 285 254 228 210 226 230 204 213 249 240 232 218 218 229 207 202 209 228 286 143 169 205 265 234 186 139 117 152 160 149 153 154 150 151 142 131 128 126 107 92 87 111
264 279 269 273 244 229 220 223 237 242 244 247 234 204 218 202 186 203 178 141 146 135 179 285 313 199 118 128 130 135 135 153 163 176 171 165 165 160 158 146 128 115 121
238 252 277 286 270 265 238 228 239 248 238 241 246 235 227 198 194 195 176 191 187 174 174 227 284 312 153 159 149 155 152 178 164 180 176 173 180 172 161 154 153 144 143
254 260 254 272 283 271 257 247 239 243 242 241 241 237 233 203 205 198 183 194 194 200 177 179 245 251 255 194 137 147 150 267 183 175 183 183 188 179 172 172 178 179 174
279 285 283 279 285 282 269 259 256 250 250 251 251 242 235 215 208 205 200 202 192 188 183 188 220 240 233 246 146 159 224 290 212 181 187 181 189 187 184 189 198 195 187
290 293 309 305 309 294 285 305 284 270 258 252 251 243 228 211 201 196 196 194 189 188 190 194 206 219 231 216 214 190 183 198 241 193 170 184 170 174 189 203 205 200 195
291 305 292 288 291 298 317 318 304 283 267 254 254 253 238 219 214 212 211 200 194 196 197 198 206 209 223 220 213 185 177 175 233 242 150 211 165 180 195 185 187 191 198
291 279 273 274 268 279 292 295 297 284 272 263 251 254 260 243 210 205 222 234 233 234 215 198 202 219 221 215 196 188 193 188 204 210 153 227 192 186 204 197 187 188 194
278 264 268 275 273 278 286 285 294 280 270 265 252 245 248 251 228 211 202 210 216 229 226 216 213 226 230 215 195 192 192 183 190 192 145 196 210 198 203 207 189 180 182
278 272 261 260 268 277 283 281 281 279 273 272 264 251 247 248 247 232 210 213 221 231 235 224 225 226 228 217 184 158 168 164 187 231 192 173 207 206 198 206 197 186 187
277 285 290 274 270 280 299 304 284 271 275 277 273 262 248 257 260 230 210 210 227 240 236 237 238 241 229 218 200 186 184 181 173 206 216 164 188 151 259 224 178 181 194